Temperature
-0 0 1 1 1 1 1 1 2 2 1 3 2 2 2 3 3 3 3 3 4 4 4 4 4 5 5 5 5 5 5 5 5 5 5 5 5 5 5 4 4 4 4 4
-0 0 0 0 1 1 1 1 1 1 1 2 1 1 1 2 2 2 2 3 3 3 3 3 4 4 4 4 4 4 4 4 4 4 4 4 4 4 4 4 4 4 3 3
0 -0 0 1 1 1 1 0 0 1 2 0 0 0 1 2 2 2 2 2 2 3 3 3 3 3 4 4 4 4 4 4 4 4 4 4 4 3 3 3 3 3 3 3
-1 -0 2 3 1 0 0 0 -1 -0 0 -0 0 1 2 2 2 2 2 2 2 2 2 3 3 3 3 3 3 3 3 3 3 3 3 3 3 3 3 3 3 2 2 2
-2 -0 1 1 0 -1 -0 1 -0 -1 -0 -0 0 0 1 2 2 2 2 2 2 2 2 2 2 3 3 3 3 3 3 3 3 3 3 3 2 2 2 2 2 2 2 2
-2 -0 2 3 0 -0 0 1 0 -1 -1 -1 -1 -0 1 2 2 1 1 1 2 2 2 2 2 2 2 2 2 2 2 2 2 2 2 2 2 2 2 2 1 1 1 1
-2 -2 -0 0 -1 -0 1 2 1 0 -0 -1 -1 0 1 1 1 1 1 1 1 1 1 2 2 1 1 1 1 1 1 1 1 1 1 1 1 1 1 1 1 0 0 0
-3 -2 0 -1 -1 -0 1 1 1 0 1 0 0 1 0 1 1 1 1 1 1 1 1 1 1 1 1 1 1 1 1 1 1 1 1 0 1 0 0 0 0 -0 -0 -0
-2 -0 -1 -1 -0 1 1 0 1 1 1 0 0 -0 -0 -0 -0 -0 -0 0 -0 -0 0 0 0 0 0 0 0 0 0 0 0 0 -0 -0 -0 -0 -0 -0 -1 -1 -1 -1
-4 -3 -2 -1 -0 0 1 1 1 1 0 0 -0 -0 -0 -1 -1 -1 -1 -1 -1 -0 -0 -0 -0 -0 -0 -0 -0 -0 -0 -0 -1 -1 -1 -1 -1 -1 -1 -1 -1 -1 -1 -2
-4 -3 -2 -0 0 1 1 0 0 0 0 0 -0 -0 -1 -1 -1 -1 -1 -1 -1 -1 -1 -1 -1 -1 -1 -1 -1 -1 -1 -1 -1 -1 -1 -1 -1 -1 -1 -1 -1 -2 -2 -2
-2 -1 -2 -0 1 1 0 -0 -0 -0 -0 -0 -1 -1 -1 -1 -1 -2 -2 -1 -1 -1 -1 -1 -1 -1 -1 -1 -1 -1 -1 -1 -1 -1 -1 -2 -2 -2 -2 -2 -2 -2 -2 -2
-0 -0 -0 0 0 0 -0 -0 -1 -1 -1 -1 -1 -1 -1 -2 -2 -2 -2 -2 -2 -2 -2 -2 -2 -1 -2 -2 -2 -2 -2 -2 -2 -2 -2 -2 -2 -2 -2 -2 -2 -2 -2 -2
-1 -1 -1 -1 -1 -1 -1 -1 -1 -1 -1 -1 -2 -2 -2 -2 -2 -2 -2 -2 -2 -2 -2 -2 -2 -2 -2 -2 -2 -2 -2 -2 -2 -2 -2 -2 -3 -3 -3 -3 -3 -3 -3 -3
-1 -1 -1 -1 -1 -1 -1 -1 -2 -2 -2 -2 -2 -2 -2 -2 -2 -3 -3 -3 -3 -3 -3 -3 -2 -2 -2 -2 -3 -3 -3 -2 -3 -3 -3 -3 -3 -3 -3 -3 -3 -3 -3 -3
-1 -2 -2 -2 -2 -2 -2 -2 -2 -2 -2 -2 -3 -3 -3 -3 -3 -3 -3 -3 -3 -3 -3 -3 -3 -3 -3 -3 -3 -3 -3 -3 -3 -3 -3 -3 -3 -4 -4 -4 -4 -4 -4 -4
-2 -3 -2 -2 -2 -2 -2 -2 -3 -3 -3 -3 -3 -3 -3 -3 -3 -3 -3 -3 -3 -4 -4 -3 -3 -3 -3 -3 -3 -3 -3 -3 -3 -3 -4 -4 -4 -4 -4 -5 -5 -5 -5 -5
-2 -2 -2 -2 -2 -3 -3 -3 -3 -3 -3 -3 -3 -4 -4 -4 -4 -4 -4 -4 -4 -4 -4 -4 -4 -4 -4 -4 -4 -4 -4 -4 -4 -4 -4 -4 -4 -5 -5 -5 -5 -5 -5 -5
-2 -3 -3 -3 -3 -3 -3 -3 -3 -3 -3 -4 -4 -4 -4 -4 -4 -4 -4 -4 -4 -4 -4 -4 -4 -4 -4 -4 -4 -4 -4 -4 -5 -5 -5 -5 -5 -5 -5 -6 -6 -6 -6 -6
-3 -3 -3 -3 -3 -4 -4 -4 -4 -4 -4 -4 -4 -4 -4 -4 -4 -4 -4 -4 -4 -5 -5 -5 -5 -5 -5 -5 -5 -5 -5 -5 -5 -5 -5 -5 -6 -6 -6 -6 -6 -6 -6 -6
-3 -3 -3 -3 -4 -4 -4 -4 -4 -4 -4 -4 -4 -4 -5 -5 -5 -5 -5 -5 -5 -5 -5 -5 -5 -5 -5 -5 -5 -5 -5 -5 -6 -6 -6 -6 -6 -6 -6 -6 -6 -6 -7 -6
-3 -3 -4 -4 -4 -4 -4 -5 -5 -5 -5 -5 -5 -5 -5 -5 -5 -5 -5 -5 -5 -5 -5 -5 -5 -5 -5 -6 -6 -6 -6 -6 -6 -6 -6 -6 -6 -6 -7 -7 -7 -7 -7 -7
-4 -4 -4 -4 -5 -5 -5 -5 -5 -5 -5 -5 -5 -5 -5 -5 -5 -5 -5 -5 -5 -5 -5 -5 -6 -6 -6 -6 -6 -6 -6 -6 -6 -6 -7 -7 -7 -7 -7 -7 -7 -7 -7 -7
-4 -4 -5 -5 -5 -5 -5 -5 -5 -6 -6 -6 -5 -5 -6 -5 -5 -5 -5 -5 -5 -6 -6 -6 -6 -6 -6 -6 -6 -6 -7 -7 -7 -7 -7 -7 -7 -7 -7 -7 -7 -7 -7 -7
-4 -5 -5 -5 -6 -6 -6 -6 -6 -6 -6 -6 -6 -6 -6 -6 -6 -6 -6 -6 -6 -6 -6 -6 -6 -6 -7 -7 -7 -7 -7 -7 -7 -7 -7 -7 -7 -7 -7 -8 -8 -7 -7 -7
-5 -5 -6 -6 -6 -6 -6 -6 -6 -6 -6 -6 -6 -6 -6 -6 -6 -6 -6 -6 -6 -6 -6 -6 -6 -7 -7 -7 -7 -7 -7 -7 -7 -7 -7 -7 -7 -8 -8 -8 -8 -8 -7 -7
-6 -6 -6 -6 -6 -7 -7 -7 -7 -7 -7 -7 -7 -6 -6 -6 -7 -7 -7 -7 -7 -7 -7 -7 -7 -7 -7 -7 -7 -7 -7 -7 -7 -8 -8 -8 -8 -8 -8 -8 -8 -8 -8 -8
Wind_Speed
7 7 5 6 8 8 10 9 9 10 10 13 9 7 7 6 5 4 4 4 4 3 4 3 3 3 2 2 1 1 1 2 2 2 2 3 2 3 2 2 2 2 2 1
5 5 6 8 10 11 12 10 11 11 13 8 7 5 5 5 4 5 5 5 4 4 4 4 4 3 3 2 2 1 1 2 2 1 2 2 2 2 2 1 1 1 1 1
4 3 3 8 10 12 8 8 8 11 10 6 6 7 6 6 5 5 6 5 5 5 4 4 4 3 3 3 2 1 1 1 0 1 1 2 2 2 2 1 1 1 1 1
2 1 6 6 2 6 8 8 9 9 8 6 7 7 6 4 4 5 6 6 5 4 5 4 3 2 2 2 1 0 1 0 0 1 1 1 2 2 1 1 1 1 0 0
1 3 7 6 2 4 5 7 7 9 9 6 5 4 5 3 3 4 6 5 5 4 4 3 2 2 1 2 1 1 1 0 0 0 1 1 2 1 1 1 0 0 0 0
3 3 6 5 2 2 2 6 4 5 7 4 2 3 6 5 5 5 5 4 4 3 2 2 2 1 1 1 1 1 1 1 1 1 2 2 2 1 1 1 1 0 0 0
5 6 8 5 1 4 3 6 3 3 4 3 4 6 6 5 5 4 4 4 3 2 2 2 2 1 0 1 2 2 1 1 0 0 1 1 1 1 1 1 1 1 1 1
4 5 8 2 4 6 6 3 2 3 3 4 5 5 5 5 5 5 4 4 3 2 3 3 2 1 1 2 3 2 1 1 0 0 0 1 2 1 1 2 1 0 0 2
8 7 4 3 5 4 2 3 4 3 4 3 3 4 5 5 5 4 4 4 3 2 3 3 2 1 2 3 2 1 1 1 1 1 0 1 2 2 1 1 1 0 1 1
5 8 6 6 5 4 4 4 5 4 4 3 4 5 5 5 5 4 4 3 2 2 2 3 3 2 3 3 2 1 0 1 1 0 0 0 0 1 1 1 1 1 1 2
6 7 6 5 6 6 5 4 5 5 4 4 4 5 5 5 5 4 4 3 2 2 3 3 3 3 3 2 1 1 1 1 1 0 0 0 0 1 1 2 2 2 2 2
7 6 5 6 4 3 4 5 5 4 4 4 4 5 4 4 4 3 3 3 2 2 3 3 3 3 3 2 1 0 1 1 1 1 0 0 0 1 2 2 3 3 3 3
6 4 4 5 4 3 3 4 4 4 5 5 4 3 3 4 3 3 3 2 2 3 3 3 3 3 3 2 1 1 1 1 1 1 0 0 0 0 1 2 2 2 3 3
5 3 4 5 5 4 3 4 3 3 3 3 3 3 2 3 3 3 3 3 3 3 3 3 3 3 3 1 1 1 1 2 1 1 1 1 1 1 1 1 2 2 2 3
6 5 6 5 4 3 3 2 2 3 3 3 2 2 2 3 3 4 3 2 2 2 2 2 3 4 3 1 1 1 1 1 1 1 1 1 1 1 1 1 1 2 2 2
4 3 4 4 5 4 3 3 3 4 3 3 3 3 3 3 3 3 3 2 1 3 3 3 3 4 2 1 1 1 2 2 1 1 1 1 1 1 1 1 1 1 2 2
3 4 4 5 6 5 5 5 5 4 3 4 4 3 2 2 2 3 3 2 2 3 3 3 4 3 2 1 1 1 1 2 2 1 1 1 1 1 1 1 2 2 2 3
6 6 5 5 5 5 5 4 4 4 4 4 3 2 2 2 3 4 4 3 2 3 3 3 3 2 1 1 1 1 1 1 1 1 1 1 1 1 1 2 2 2 2 2
4 4 4 4 4 4 4 4 4 4 3 3 2 3 3 4 4 4 3 2 3 4 4 3 3 2 2 2 2 1 1 1 1 1 1 2 2 1 2 2 2 2 2 2
3 3 3 3 3 3 4 3 3 3 3 3 3 3 3 4 3 3 2 3 4 4 4 4 3 2 2 2 2 1 1 2 2 2 2 2 2 2 2 3 3 3 3 3
4 3 3 3 3 4 4 3 3 3 3 3 3 4 5 4 3 3 2 4 4 3 3 4 2 2 2 2 2 1 2 2 2 2 2 2 3 3 3 3 3 3 3 3
3 3 3 3 3 4 4 3 3 4 3 3 4 4 4 4 4 3 4 5 4 4 2 2 2 4 4 3 1 2 2 2 3 2 3 3 3 3 3 3 3 3 3 3
4 3 3 4 4 4 4 3 4 4 4 4 5 5 5 5 4 3 5 3 3 5 3 3 5 6 5 2 1 2 3 3 3 3 3 3 3 4 4 4 4 3 3 3
4 4 4 3 2 3 4 5 4 4 4 5 5 5 5 4 4 4 4 5 5 6 4 5 6 5 4 1 1 2 3 3 3 3 3 3 3 3 3 4 4 3 3 3
3 3 3 3 3 4 4 4 4 4 4 4 4 4 4 4 4 4 3 4 5 5 3 4 5 4 2 2 2 3 3 4 4 3 3 3 3 3 3 3 3 3 3 3
3 3 4 4 4 4 3 3 3 3 3 4 4 3 3 3 3 3 3 3 4 4 3 3 3 3 2 2 3 3 3 4 4 3 3 3 3 3 3 3 4 3 3 3
2 2 2 3 3 3 3 3 4 4 4 4 5 4 3 3 3 3 3 3 3 3 2 2 2 2 2 3 3 3 3 3 3 3 3 3 3 3 3 4 3 3 3 3
Wind_Direction
256 266 249 242 235 213 213 217 225 251 257 275 286 297 301 305 310 312 312 312 308 306 308 312 316 317 311 301 296 269 225 220 233 223 194 180 187 192 187 186 191 187 186 215
269 258 254 258 241 226 228 231 241 263 272 270 291 307 304 300 296 296 297 296 298 303 308 308 314 317 315 304 301 276 228 243 239 198 173 169 178 175 162 171 173 163 173 201
261 285 302 263 231 211 216 219 215 241 257 300 308 301 294 287 275 277 288 291 292 291 285 284 289 293 292 279 290 282 258 253 224 153 166 184 166 149 159 171 165 174 188 183
270 350 245 248 193 193 217 236 224 244 266 278 278 288 287 273 269 280 287 288 287 286 288 288 292 299 308 334 340 19 59 3 283 160 179 154 143 156 160 146 160 168 220 232
190 256 274 287 236 180 207 263 227 236 265 288 310 316 300 287 284 277 285 285 282 280 281 283 293 313 352 360 1 10 3 314 297 182 173 159 165 180 164 123 120 148 134 227
180 221 246 257 206 169 138 282 246 222 255 280 4 311 290 317 311 301 301 299 294 297 302 306 316 4 25 350 352 321 302 290 271 188 178 191 194 187 121 111 126 95 9 259
211 234 261 257 193 125 170 262 290 231 240 218 224 247 284 311 312 306 306 309 315 315 313 307 331 50 8 328 297 292 303 317 339 178 181 184 158 124 112 105 94 85 360 322
183 217 255 204 144 186 226 285 288 268 247 234 257 286 305 307 309 316 319 326 334 332 320 328 349 35 310 291 292 309 329 345 341 308 166 127 123 110 113 125 132 132 340 319
201 222 267 206 214 239 251 264 272 266 264 251 267 283 296 302 303 306 308 313 322 316 318 329 323 278 271 289 308 329 2 344 324 356 24 145 149 151 129 132 158 245 274 297
254 266 267 258 258 266 254 254 270 272 274 258 262 275 287 295 298 301 305 304 316 328 318 315 319 314 289 296 311 344 320 308 322 4 6 16 150 164 163 185 208 241 262 280
256 275 295 275 242 253 270 274 277 283 273 253 253 269 268 279 285 290 300 308 307 295 291 297 311 310 310 318 345 329 303 305 325 297 237 285 312 251 227 231 221 222 235 243
237 236 224 259 257 246 254 266 268 275 285 276 250 258 268 274 277 281 287 299 304 301 299 300 306 305 307 314 311 269 287 292 268 252 271 249 314 344 318 269 282 281 270 267
241 257 246 271 277 255 248 263 270 265 266 279 281 261 262 274 278 278 280 284 282 284 290 298 304 301 303 312 306 249 260 272 273 254 248 257 239 244 316 337 322 291 286 289
252 265 275 270 269 278 273 275 278 281 277 272 277 285 277 277 283 280 276 273 275 281 289 293 297 294 297 303 294 269 275 277 273 247 238 240 237 243 246 273 314 320 314 306
248 231 242 269 292 300 297 299 301 297 299 302 296 289 283 277 275 278 281 286 298 296 292 295 295 297 310 306 292 285 280 272 271 261 239 230 231 240 242 252 266 293 319 327
252 246 250 262 271 282 291 283 272 277 281 283 285 283 276 270 273 281 285 277 273 280 282 282 283 293 302 290 279 276 266 272 283 267 250 239 229 231 248 253 262 275 283 293
231 248 249 261 264 267 263 259 257 265 269 267 268 275 284 289 291 288 287 282 260 261 262 259 272 290 284 267 254 260 256 262 275 270 241 244 241 246 248 249 254 264 272 279
226 235 236 242 250 256 264 264 261 263 263 266 271 272 267 262 267 275 283 291 297 294 276 258 265 283 278 268 255 253 247 250 243 238 242 245 250 248 247 249 255 265 284 289
243 246 252 253 248 246 252 256 258 261 267 265 256 259 261 259 259 264 270 277 281 287 285 278 291 297 281 273 277 239 228 238 254 251 241 247 261 253 250 251 258 263 272 283
249 249 250 257 256 252 258 263 263 267 269 262 259 265 272 271 264 261 263 266 259 258 268 277 280 272 269 267 275 243 222 224 233 246 242 237 243 249 251 253 254 259 264 268
251 253 254 261 271 269 259 253 250 260 268 260 248 249 257 266 262 252 252 274 277 260 264 274 274 268 268 269 271 238 228 234 237 237 240 240 242 246 249 254 258 258 259 263
256 252 255 257 260 273 274 260 250 252 260 265 261 252 251 258 260 261 250 249 266 273 277 265 264 263 269 274 244 232 236 241 245 242 240 240 238 241 247 252 256 259 259 260
259 253 253 253 252 265 279 270 255 248 249 253 254 251 248 250 244 245 270 258 256 267 272 259 264 268 274 263 241 238 239 242 246 244 240 240 241 240 243 249 253 255 257 259
259 256 253 253 248 254 269 274 268 260 255 257 253 248 244 252 261 247 250 263 268 271 267 265 267 272 278 258 240 243 245 245 245 244 240 238 240 241 242 245 250 252 254 257
254 253 251 244 246 253 257 266 275 272 265 265 261 255 246 237 244 259 256 254 260 272 273 264 268 276 271 246 242 244 244 243 244 241 235 238 238 240 243 245 246 248 251 254
248 248 248 244 244 248 251 253 263 267 268 275 277 263 258 256 252 256 259 260 256 267 272 268 261 262 249 242 242 244 243 250 255 251 242 240 237 237 241 244 245 246 250 255
252 251 257 269 263 245 242 244 253 259 255 257 271 268 260 258 254 252 254 257 257 258 260 258 252 247 246 245 246 247 245 241 239 242 241 236 234 235 237 240 244 249 253 257
Height
1497 1493 1492 1490 1489 1491 1492 1489 1488 1479 1476 1465 1462 1461 1459 1457 1455 1454 1452 1451 1450 1449 1448 1447 1447 1446 1447 1447 1447 1448 1448 1449 1451 1452 1453 1454 1456 1457 1458 1459 1460 1461 1461 1462
1495 1490 1491 1488 1483 1483 1483 1483 1481 1477 1471 1463 1461 1460 1457 1456 1455 1453 1451 1450 1449 1448 1447 1445 1444 1444 1444 1444 1444 1445 1446 1447 1448 1449 1450 1451 1452 1453 1454 1456 1457 1457 1457 1458
1492 1491 1488 1481 1474 1475 1475 1474 1475 1473 1465 1462 1460 1457 1456 1454 1453 1452 1450 1449 1448 1446 1446 1445 1443 1442 1441 1441 1442 1442 1443 1444 1445 1447 1448 1449 1449 1450 1452 1453 1453 1454 1454 1454
1495 1491 1481 1468 1467 1467 1469 1467 1468 1465 1461 1460 1458 1456 1454 1454 1452 1451 1449 1448 1446 1445 1444 1443 1442 1441 1440 1439 1440 1440 1440 1442 1443 1444 1445 1446 1447 1448 1449 1450 1450 1450 1450 1451
1497 1491 1479 1467 1466 1467 1468 1463 1460 1461 1458 1457 1456 1454 1452 1451 1451 1450 1448 1447 1445 1444 1443 1442 1440 1439 1438 1438 1438 1438 1438 1439 1440 1441 1442 1443 1444 1445 1446 1447 1447 1447 1447 1448
1496 1488 1475 1462 1463 1462 1465 1462 1455 1456 1455 1455 1455 1456 1451 1449 1448 1447 1445 1444 1443 1442 1441 1440 1439 1438 1437 1436 1436 1436 1437 1437 1439 1439 1440 1441 1441 1442 1443 1443 1444 1444 1445 1445
1493 1489 1474 1462 1462 1463 1466 1459 1454 1453 1453 1453 1453 1453 1450 1448 1447 1445 1444 1442 1441 1440 1439 1438 1437 1437 1436 1435 1435 1435 1435 1436 1437 1438 1438 1438 1439 1439 1440 1440 1441 1441 1442 1442
1491 1488 1472 1460 1461 1461 1457 1453 1452 1451 1451 1451 1450 1449 1448 1446 1444 1443 1442 1440 1439 1438 1438 1437 1436 1435 1434 1434 1434 1434 1434 1434 1435 1435 1436 1436 1436 1437 1437 1438 1438 1439 1439 1439
1474 1467 1458 1456 1454 1454 1453 1452 1451 1450 1450 1449 1448 1447 1446 1444 1442 1441 1440 1439 1438 1437 1436 1436 1435 1434 1433 1433 1433 1432 1432 1432 1433 1433 1434 1434 1434 1434 1435 1435 1436 1436 1436 1436
1468 1458 1455 1453 1452 1452 1451 1450 1449 1449 1448 1447 1445 1444 1443 1442 1441 1439 1438 1437 1436 1435 1434 1433 1433 1433 1432 1432 1431 1430 1430 1430 1430 1430 1431 1431 1432 1432 1432 1432 1433 1433 1433 1433
1463 1456 1452 1449 1449 1449 1448 1447 1447 1446 1445 1444 1443 1442 1441 1439 1438 1437 1436 1435 1434 1433 1432 1432 1431 1431 1430 1430 1430 1429 1429 1429 1429 1429 1429 1429 1429 1430 1430 1431 1431 1431 1431 1431
1454 1449 1449 1446 1446 1446 1445 1444 1444 1443 1442 1441 1440 1439 1438 1437 1436 1435 1434 1433 1432 1431 1431 1430 1429 1429 1429 1429 1428 1427 1427 1427 1427 1427 1427 1427 1427 1427 1428 1429 1429 1429 1429 1429
1446 1445 1445 1444 1443 1443 1442 1441 1441 1440 1439 1438 1437 1436 1435 1434 1433 1432 1432 1431 1430 1429 1429 1428 1428 1427 1427 1426 1426 1425 1425 1425 1425 1425 1425 1425 1425 1424 1424 1425 1426 1426 1426 1426
1443 1444 1442 1441 1440 1440 1439 1438 1438 1437 1436 1435 1434 1433 1432 1431 1431 1430 1429 1429 1428 1427 1427 1426 1425 1425 1425 1424 1424 1423 1423 1423 1423 1423 1423 1423 1423 1422 1422 1422 1421 1422 1423 1423
1439 1440 1439 1438 1437 1436 1436 1435 1434 1433 1433 1432 1431 1430 1430 1429 1428 1427 1427 1426 1425 1425 1424 1424 1423 1423 1423 1422 1421 1421 1421 1421 1421 1421 1421 1420 1420 1420 1420 1420 1419 1419 1420 1420
1435 1435 1435 1434 1434 1433 1433 1432 1431 1430 1430 1429 1428 1428 1427 1426 1425 1425 1424 1424 1423 1422 1421 1421 1421 1420 1420 1420 1419 1419 1419 1419 1419 1419 1418 1418 1418 1417 1417 1417 1417 1417 1417 1417
1432 1431 1431 1430 1430 1429 1429 1429 1428 1427 1427 1426 1426 1425 1424 1423 1423 1422 1422 1421 1420 1420 1419 1419 1418 1418 1418 1417 1417 1416 1416 1416 1416 1416 1416 1416 1415 1415 1415 1414 1414 1414 1414 1414
1428 1428 1428 1427 1427 1426 1426 1425 1425 1424 1424 1423 1423 1422 1421 1421 1420 1420 1419 1419 1418 1417 1417 1416 1416 1415 1415 1415 1414 1414 1414 1413 1413 1413 1413 1413 1413 1413 1412 1412 1412 1411 1411 1412
1424 1424 1424 1424 1424 1423 1423 1422 1422 1421 1421 1421 1420 1419 1418 1418 1417 1417 1416 1416 1415 1414 1414 1414 1413 1413 1412 1412 1412 1411 1411 1411 1410 1410 1410 1410 1410 1410 1410 1409 1409 1409 1408 1408
1421 1421 1421 1421 1420 1420 1419 1419 1419 1418 1418 1417 1417 1416 1415 1415 1415 1414 1413 1413 1412 1412 1411 1411 1411 1410 1410 1410 1409 1409 1408 1408 1407 1407 1407 1407 1407 1407 1407 1406 1406 1406 1406 1405
1418 1418 1417 1417 1417 1417 1416 1416 1416 1415 1415 1414 1413 1413 1412 1412 1412 1411 1410 1409 1409 1409 1409 1408 1408 1407 1407 1406 1406 1405 1405 1405 1404 1404 1404 1404 1404 1404 1403 1403 1403 1403 1403 1403
1415 1415 1414 1414 1414 1413 1413 1412 1412 1412 1411 1410 1410 1410 1409 1408 1408 1408 1407 1407 1406 1406 1405 1405 1404 1404 1404 1403 1403 1402 1402 1402 1401 1401 1401 1400 1400 1400 1400 1400 1400 1400 1400 1400
1412 1411 1411 1411 1411 1410 1409 1409 1409 1408 1407 1407 1406 1406 1406 1405 1405 1404 1403 1404 1403 1403 1402 1402 1401 1401 1400 1400 1399 1399 1399 1398 1398 1397 1397 1397 1397 1397 1397 1397 1397 1397 1397 1397
1408 1408 1407 1407 1407 1406 1405 1405 1405 1404 1404 1403 1403 1403 1402 1402 1401 1401 1401 1400 1400 1399 1399 1398 1398 1397 1397 1396 1396 1395 1395 1394 1394 1394 1394 1394 1394 1394 1394 1394 1394 1394 1394 1394
1404 1404 1404 1403 1403 1402 1402 1401 1401 1400 1400 1399 1399 1399 1399 1398 1397 1397 1396 1396 1396 1395 1395 1395 1394 1394 1393 1392 1392 1391 1391 1391 1390 1390 1390 1390 1390 1391 1391 1391 1391 1391 1391 1391
1400 1400 1400 1400 1399 1398 1398 1397 1396 1396 1395 1395 1394 1395 1394 1394 1393 1393 1393 1392 1392 1391 1391 1391 1390 1390 1389 1389 1388 1388 1387 1387 1387 1387 1387 1387 1387 1387 1388 1388 1388 1388 1388 1388
1397 1396 1396 1395 1395 1395 1394 1393 1392 1392 1391 1391 1390 1390 1390 1389 1389 1389 1388 1388 1388 1388 1387 1387 1386 1386 1385 1385 1385 1384 1384 1384 1384 1384 1384 1384 1384 1384 1385 1385 1385 1385 1386 1386